| time (UTC) | temp F | wind direction | speed MPH | gust MPH | rain 1hr in | rain 24hr in | rain mn in | humidity % | barometer mb |
| 20260506002433 | 82 | 306 | 3.0 | 3.0 | 0.00 | 0.00 | 0.00 | 64 | 1006.5 |
| 20260506001929 | 82 | 340 | 4.0 | 5.0 | 0.00 | 0.00 | 0.00 | 64 | 1006.7 |
| 20260506001426 | 82 | 258 | 3.0 | 3.0 | 0.00 | 0.00 | 0.00 | 64 | 1007.0 |
| 20260506000923 | 83 | 8 | 3.0 | 5.0 | 0.00 | 0.00 | 0.00 | 62 | 1006.5 |
| 20260506000423 | 84 | 266 | 1.0 | 3.0 | 0.00 | 0.00 | 0.00 | 61 | 1006.5 |
| 20260505235917 | 84 | 8 | 3.0 | 3.0 | 0.00 | 0.00 | 0.00 | 58 | 1006.1 |
| 20260505235415 | 84 | 5 | 4.0 | 5.0 | 0.00 | 0.00 | 0.00 | 56 | 1006.0 |
| 20260505234912 | 84 | 235 | 2.0 | 2.0 | 0.00 | 0.00 | 0.00 | 59 | 1006.1 |
| 20260505234410 | 84 | 276 | 3.0 | 5.0 | 0.00 | 0.00 | 0.00 | 73 | 1006.1 |
| 20260505233906 | 85 | 279 | 4.0 | 7.0 | 0.00 | 0.00 | 0.00 | 72 | 1005.4 |
| 20260505233404 | 85 | 191 | 1.0 | 2.0 | 0.00 | 0.00 | 0.00 | 71 | 1005.4 |
| 20260505232901 | 86 | 165 | 2.0 | 2.0 | 0.00 | 0.00 | 0.00 | 70 | 1005.6 |
| 20260505232359 | 86 | 194 | 3.0 | 5.0 | 0.00 | 0.00 | 0.00 | 70 | 1005.2 |
| 20260505231855 | 87 | 175 | 3.0 | 5.0 | 0.00 | 0.00 | 0.00 | 68 | 1005.3 |
| 20260505231353 | 87 | 192 | 1.0 | 2.0 | 0.00 | 0.00 | 0.00 | 67 | 1005.5 |
| 20260505230851 | 87 | 194 | 3.0 | 3.0 | 0.00 | 0.00 | 0.00 | 67 | 1005.2 |
| 20260505230348 | 87 | 152 | 2.0 | 2.0 | 0.00 | 0.00 | 0.00 | 68 | 1005.3 |
| 20260505225844 | 87 | 198 | 1.0 | 1.0 | 0.00 | 0.00 | 0.00 | 68 | 1005.1 |
| 20260505225342 | 87 | 148 | 3.0 | 5.0 | 0.00 | 0.00 | 0.00 | 67 | 1005.1 |
| 20260505224837 | 87 | 211 | 2.0 | 2.0 | 0.00 | 0.00 | 0.00 | 67 | 1005.1 |
| 20260505224335 | 87 | 170 | 3.0 | 3.0 | 0.00 | 0.00 | 0.00 | 66 | 1005.0 |
| 20260505223832 | 87 | 192 | 1.0 | 2.0 | 0.00 | 0.00 | 0.00 | 66 | 1005.4 |
| 20260505223329 | 89 | 209 | 1.0 | 2.0 | 0.00 | 0.00 | 0.00 | 64 | 1004.8 |
| 20260505222824 | 89 | 191 | 4.0 | 6.0 | 0.00 | 0.00 | 0.00 | 63 | 1004.8 |
| 20260505222321 | 89 | 202 | 4.0 | 6.0 | 0.00 | 0.00 | 0.00 | 62 | 1005.1 |
| 20260505221818 | 90 | 194 | 1.0 | 1.0 | 0.00 | 0.00 | 0.00 | 60 | 1005.1 |
| 20260505221315 | 90 | 190 | 1.0 | 1.0 | 0.00 | 0.00 | 0.00 | 59 | 1005.1 |
| 20260505220812 | 91 | 220 | 2.0 | 3.0 | 0.00 | 0.00 | 0.00 | 56 | 1005.1 |
| 20260505220309 | 91 | 235 | 1.0 | 1.0 | 0.00 | 0.00 | 0.00 | 54 | 1004.9 |
| 20260505215807 | 91 | 157 | 3.0 | 3.0 | 0.00 | 0.00 | 0.00 | 54 | 1005.0 |
| 20260505215305 | 91 | 170 | 3.0 | 3.0 | 0.00 | 0.00 | 0.00 | 53 | 1005.0 |
| 20260505214802 | 92 | 195 | 1.0 | 1.0 | 0.00 | 0.00 | 0.00 | 53 | 1004.8 |
| 20260505214259 | 92 | 215 | 3.0 | 6.0 | 0.00 | 0.00 | 0.00 | 54 | 1005.0 |
| 20260505213756 | 92 | 248 | 5.0 | 7.0 | 0.00 | 0.00 | 0.00 | 54 | 1005.2 |
| 20260505213254 | 92 | 261 | 4.0 | 6.0 | 0.00 | 0.00 | 0.00 | 54 | 1005.3 |
| 20260505212749 | 92 | 242 | 1.0 | 1.0 | 0.00 | 0.00 | 0.00 | 54 | 1005.2 |
| 20260505212247 | 91 | 186 | 2.0 | 2.0 | 0.00 | 0.00 | 0.00 | 54 | 1005.2 |
| 20260505211743 | 91 | 186 | 2.0 | 2.0 | 0.00 | 0.00 | 0.00 | 54 | 1005.4 |
| 20260505211241 | 90 | 268 | 2.0 | 2.0 | 0.00 | 0.00 | 0.00 | 55 | 1005.3 |
| 20260505210737 | 91 | 256 | 3.0 | 5.0 | 0.00 | 0.00 | 0.00 | 56 | 1005.2 |
| 20260505210234 | 91 | 209 | 1.0 | 2.0 | 0.00 | 0.00 | 0.00 | 56 | 1005.4 |
| 20260505205732 | 91 | 192 | 2.0 | 3.0 | 0.00 | 0.00 | 0.00 | 56 | 1005.4 |
| 20260505205230 | 91 | 281 | 2.0 | 3.0 | 0.00 | 0.00 | 0.00 | 57 | 1005.2 |
| 20260505204726 | 91 | 206 | 2.0 | 3.0 | 0.00 | 0.00 | 0.00 | 58 | 1005.5 |
| 20260505204224 | 90 | 165 | 2.0 | 2.0 | 0.00 | 0.00 | 0.00 | 58 | 1005.8 |
| 20260505203721 | 90 | 205 | 8.0 | 9.0 | 0.00 | 0.00 | 0.00 | 58 | 1006.0 |
| 20260505203218 | 90 | 174 | 3.0 | 3.0 | 0.00 | 0.00 | 0.00 | 59 | 1005.8 |
| 20260505202713 | 89 | 156 | 7.0 | 9.0 | 0.00 | 0.00 | 0.00 | 60 | 1005.9 |
| 20260505202210 | 89 | 197 | 2.0 | 3.0 | 0.00 | 0.00 | 0.00 | 63 | 1005.9 |
| 20260505201706 | 88 | 196 | 3.0 | 5.0 | 0.00 | 0.00 | 0.00 | 63 | 1006.0 |
| 20260505201204 | 87 | 183 | 2.0 | 3.0 | 0.00 | 0.00 | 0.00 | 63 | 1005.8 |
| 20260505200702 | 87 | 186 | 6.0 | 10.0 | 0.00 | 0.00 | 0.00 | 64 | 1006.2 |
| 20260505200159 | 88 | 192 | 1.0 | 2.0 | 0.00 | 0.00 | 0.00 | 63 | 1006.3 |
| 20260505195654 | 87 | 201 | 8.0 | 8.0 | 0.00 | 0.00 | 0.00 | 64 | 1006.1 |
| 20260505195152 | 87 | 180 | 4.0 | 5.0 | 0.00 | 0.00 | 0.00 | 64 | 1006.1 |
| 20260505194649 | 88 | 246 | 4.0 | 7.0 | 0.00 | 0.00 | 0.00 | 64 | 1006.2 |
| 20260505194145 | 88 | 187 | 2.0 | 3.0 | 0.00 | 0.00 | 0.00 | 64 | 1006.4 |
| 20260505193642 | 87 | 232 | 4.0 | 6.0 | 0.00 | 0.00 | 0.00 | 66 | 1006.3 |
| 20260505193139 | 86 | 203 | 1.0 | 2.0 | 0.00 | 0.00 | 0.00 | 68 | 1006.2 |
| 20260505192638 | 86 | 172 | 5.0 | 7.0 | 0.00 | 0.00 | 0.00 | 67 | 1006.3 |
| 20260505192135 | 86 | 169 | 7.0 | 13.0 | 0.00 | 0.00 | 0.00 | 67 | 1006.3 |
| 20260505191633 | 86 | 179 | 6.0 | 9.0 | 0.00 | 0.00 | 0.00 | 67 | 1006.2 |
| 20260505191131 | 86 | 183 | 3.0 | 3.0 | 0.00 | 0.00 | 0.00 | 68 | 1006.1 |
| 20260505190626 | 84 | 200 | 1.0 | 1.0 | 0.00 | 0.00 | 0.00 | 70 | 1006.3 |
| 20260505190121 | 84 | 160 | 5.0 | 8.0 | 0.00 | 0.00 | 0.00 | 69 | 1006.5 |
| 20260505185619 | 84 | 167 | 5.0 | 6.0 | 0.00 | 0.00 | 0.00 | 70 | 1006.2 |
| 20260505185115 | 84 | 160 | 7.0 | 11.0 | 0.00 | 0.00 | 0.00 | 69 | 1006.2 |
| 20260505184611 | 84 | 176 | 6.0 | 7.0 | 0.00 | 0.00 | 0.00 | 68 | 1006.4 |
| 20260505184108 | 84 | 146 | 7.0 | 9.0 | 0.00 | 0.00 | 0.00 | 68 | 1006.6 |
| 20260505183605 | 83 | 217 | 1.0 | 2.0 | 0.00 | 0.00 | 0.00 | 70 | 1006.5 |
| 20260505183103 | 83 | 223 | 3.0 | 6.0 | 0.00 | 0.00 | 0.00 | 69 | 1006.4 |
| 20260505182558 | 84 | 193 | 5.0 | 6.0 | 0.00 | 0.00 | 0.00 | 69 | 1006.6 |
| 20260505182055 | 83 | 173 | 5.0 | 7.0 | 0.00 | 0.00 | 0.00 | 69 | 1006.7 |
| 20260505181552 | 83 | 214 | 3.0 | 3.0 | 0.00 | 0.00 | 0.00 | 70 | 1006.5 |
| 20260505181049 | 83 | 237 | 1.0 | 2.0 | 0.00 | 0.00 | 0.00 | 70 | 1006.5 |
| 20260505180545 | 83 | 202 | 7.0 | 10.0 | 0.00 | 0.00 | 0.00 | 69 | 1006.6 |
| 20260505180044 | 83 | 158 | 8.0 | 10.0 | 0.00 | 0.00 | 0.00 | 70 | 1006.6 |
| 20260505175543 | 83 | 176 | 3.0 | 5.0 | 0.00 | 0.00 | 0.00 | 69 | 1006.6 |
| 20260505175040 | 82 | 195 | 4.0 | 6.0 | 0.00 | 0.00 | 0.00 | 71 | 1006.5 |
| 20260505174538 | 83 | 229 | 6.0 | 10.0 | 0.00 | 0.00 | 0.00 | 70 | 1006.6 |
| 20260505174033 | 83 | 206 | 5.0 | 7.0 | 0.00 | 0.00 | 0.00 | 70 | 1006.6 |
| 20260505173530 | 83 | 187 | 2.0 | 2.0 | 0.00 | 0.00 | 0.00 | 71 | 1006.6 |
| 20260505173027 | 83 | 183 | 8.0 | 10.0 | 0.00 | 0.00 | 0.00 | 70 | 1006.7 |
| 20260505172525 | 84 | 179 | 2.0 | 3.0 | 0.00 | 0.00 | 0.00 | 69 | 1006.7 |
| 20260505172021 | 83 | 160 | 5.0 | 6.0 | 0.00 | 0.00 | 0.00 | 70 | 1006.8 |
| 20260505171516 | 82 | 230 | 5.0 | 7.0 | 0.00 | 0.00 | 0.00 | 72 | 1006.5 |
| 20260505171014 | 82 | 215 | 3.0 | 3.0 | 0.00 | 0.00 | 0.00 | 72 | 1006.7 |
| 20260505170510 | 82 | 119 | 6.0 | 8.0 | 0.00 | 0.00 | 0.00 | 71 | 1006.9 |
| 20260505170006 | 82 | 205 | 0.0 | 1.0 | 0.00 | 0.00 | 0.00 | 72 | 1006.8 |
| 20260505165502 | 82 | 179 | 3.0 | 6.0 | 0.00 | 0.00 | 0.00 | 71 | 1006.8 |
| 20260505164957 | 82 | 209 | 2.0 | 2.0 | 0.00 | 0.00 | 0.00 | 73 | 1006.5 |
| 20260505164448 | 81 | 140 | 2.0 | 3.0 | 0.00 | 0.00 | 0.00 | 72 | 1006.7 |
| 20260505163946 | 82 | 196 | 3.0 | 5.0 | 0.00 | 0.00 | 0.00 | 72 | 1006.6 |
| 20260505163444 | 81 | 194 | 3.0 | 7.0 | 0.00 | 0.00 | 0.00 | 72 | 1006.5 |
| 20260505162944 | 81 | 196 | 3.0 | 5.0 | 0.00 | 0.00 | 0.00 | 72 | 1006.6 |
| 20260505162439 | 81 | 298 | 4.0 | 6.0 | 0.00 | 0.00 | 0.00 | 72 | 1006.6 |
| 20260505161936 | 81 | 180 | 3.0 | 6.0 | 0.00 | 0.00 | 0.00 | 73 | 1006.6 |
| 20260505161432 | 80 | 171 | 4.0 | 7.0 | 0.00 | 0.00 | 0.00 | 73 | 1006.5 |
| 20260505160930 | 80 | 192 | 3.0 | 3.0 | 0.00 | 0.00 | 0.00 | 75 | 1006.5 |
| 20260505160428 | 80 | 161 | 7.0 | 10.0 | 0.00 | 0.00 | 0.00 | 73 | 1006.5 |
| 20260505152904 | 78 | 154 | 4.0 | 6.0 | 0.00 | 0.00 | 0.00 | 78 | 1006.6 |
| 20260505152402 | 78 | 196 | 5.0 | 8.0 | 0.00 | 0.00 | 0.00 | 79 | 1006.5 |
| 20260505151901 | 78 | 217 | 1.0 | 2.0 | 0.00 | 0.00 | 0.00 | 79 | 1006.7 |
| 20260505151358 | 77 | 192 | 5.0 | 7.0 | 0.00 | 0.00 | 0.00 | 80 | 1006.8 |
| 20260505150855 | 77 | 216 | 4.0 | 6.0 | 0.00 | 0.00 | 0.00 | 80 | 1006.8 |
| 20260505150352 | 76 | 199 | 2.0 | 3.0 | 0.00 | 0.00 | 0.00 | 81 | 1006.5 |
| 20260505140317 | 73 | 179 | 4.0 | 7.0 | 0.00 | 0.00 | 0.00 | 86 | 1006.4 |
| 20260505130240 | 72 | 203 | 7.0 | 10.0 | 0.00 | 0.00 | 0.00 | 88 | 1006.1 |
| 20260505124731 | 71 | 210 | 4.0 | 6.0 | 0.00 | 0.00 | 0.00 | 88 | 1006.4 |
| 20260505124228 | 71 | 175 | 5.0 | 8.0 | 0.00 | 0.00 | 0.00 | 88 | 1006.4 |
| 20260505123723 | 71 | 186 | 6.0 | 7.0 | 0.00 | 0.00 | 0.00 | 88 | 1006.1 |
| 20260505123220 | 71 | 202 | 4.0 | 6.0 | 0.00 | 0.00 | 0.00 | 88 | 1005.7 |
| 20260505122716 | 71 | 153 | 4.0 | 6.0 | 0.00 | 0.00 | 0.00 | 88 | 1005.7 |
| 20260505122214 | 71 | 183 | 4.0 | 6.0 | 0.00 | 0.00 | 0.00 | 89 | 1005.6 |
| 20260505121710 | 71 | 186 | 5.0 | 7.0 | 0.00 | 0.00 | 0.00 | 89 | 1006.0 |
| 20260505121207 | 71 | 196 | 5.0 | 6.0 | 0.00 | 0.00 | 0.00 | 88 | 1005.8 |
| 20260505120703 | 71 | 167 | 4.0 | 6.0 | 0.00 | 0.00 | 0.00 | 88 | 1005.8 |
| 20260505120159 | 71 | 167 | 5.0 | 8.0 | 0.00 | 0.00 | 0.00 | 88 | 1005.6 |
| 20260505115653 | 71 | 197 | 5.0 | 7.0 | 0.00 | 0.00 | 0.00 | 89 | 1005.7 |
| 20260505115151 | 71 | 173 | 7.0 | 10.0 | 0.00 | 0.00 | 0.00 | 89 | 1005.7 |
| 20260505114648 | 71 | 166 | 5.0 | 7.0 | 0.00 | 0.00 | 0.00 | 88 | 1005.7 |
| 20260505114144 | 71 | 150 | 8.0 | 9.0 | 0.00 | 0.00 | 0.00 | 88 | 1005.7 |
| 20260505113640 | 71 | 180 | 5.0 | 7.0 | 0.00 | 0.00 | 0.00 | 88 | 1005.5 |
| 20260505113137 | 71 | 192 | 4.0 | 6.0 | 0.00 | 0.00 | 0.00 | 88 | 1005.5 |
| 20260505112633 | 71 | 190 | 5.0 | 6.0 | 0.00 | 0.00 | 0.00 | 88 | 1005.4 |
| 20260505112132 | 71 | 194 | 2.0 | 2.0 | 0.00 | 0.00 | 0.00 | 88 | 1005.4 |
| 20260505111631 | 71 | 144 | 9.0 | 11.0 | 0.00 | 0.00 | 0.00 | 88 | 1005.7 |
| 20260505111127 | 71 | 192 | 6.0 | 9.0 | 0.00 | 0.00 | 0.00 | 88 | 1005.6 |
| 20260505110624 | 71 | 187 | 5.0 | 6.0 | 0.00 | 0.00 | 0.00 | 88 | 1005.6 |
| 20260505110121 | 71 | 209 | 3.0 | 5.0 | 0.00 | 0.00 | 0.00 | 88 | 1005.3 |
| 20260505102057 | 71 | 183 | 8.0 | 10.0 | 0.00 | 0.00 | 0.00 | 87 | 1005.5 |
| 20260505101555 | 71 | 193 | 8.0 | 10.0 | 0.00 | 0.00 | 0.00 | 87 | 1005.7 |
| 20260505101051 | 71 | 194 | 4.0 | 5.0 | 0.00 | 0.00 | 0.00 | 87 | 1005.4 |
| 20260505100548 | 71 | 153 | 3.0 | 3.0 | 0.00 | 0.00 | 0.00 | 87 | 1005.6 |
| 20260505100045 | 71 | 155 | 3.0 | 5.0 | 0.00 | 0.00 | 0.00 | 87 | 1005.5 |
| 20260505095541 | 71 | 181 | 5.0 | 6.0 | 0.00 | 0.00 | 0.00 | 87 | 1005.7 |
| 20260505095037 | 71 | 180 | 6.0 | 9.0 | 0.00 | 0.00 | 0.00 | 87 | 1005.7 |
| 20260505094534 | 71 | 192 | 8.0 | 11.0 | 0.00 | 0.00 | 0.00 | 87 | 1006.0 |
| 20260505094030 | 71 | 190 | 5.0 | 7.0 | 0.00 | 0.00 | 0.00 | 87 | 1005.9 |
| 20260505093527 | 71 | 191 | 7.0 | 10.0 | 0.00 | 0.00 | 0.00 | 87 | 1005.9 |
| 20260505093024 | 71 | 184 | 3.0 | 3.0 | 0.00 | 0.00 | 0.00 | 87 | 1005.8 |
| 20260505092521 | 71 | 170 | 5.0 | 7.0 | 0.00 | 0.00 | 0.00 | 87 | 1006.1 |
| 20260505092020 | 71 | 145 | 3.0 | 5.0 | 0.00 | 0.00 | 0.00 | 87 | 1006.0 |
| 20260505091516 | 71 | 195 | 4.0 | 6.0 | 0.00 | 0.00 | 0.00 | 87 | 1006.0 |
| 20260505091014 | 71 | 177 | 4.0 | 7.0 | 0.00 | 0.00 | 0.00 | 87 | 1006.2 |
| 20260505090512 | 71 | 219 | 2.0 | 3.0 | 0.00 | 0.00 | 0.00 | 88 | 1006.1 |
| 20260505090010 | 71 | 166 | 4.0 | 7.0 | 0.00 | 0.00 | 0.00 | 88 | 1006.0 |
| 20260505085508 | 71 | 130 | 8.0 | 13.0 | 0.00 | 0.00 | 0.00 | 88 | 1006.2 |
| 20260505085006 | 71 | 206 | 5.0 | 9.0 | 0.00 | 0.00 | 0.00 | 88 | 1006.2 |
| 20260505084503 | 71 | 193 | 3.0 | 9.0 | 0.00 | 0.00 | 0.00 | 88 | 1005.9 |
| 20260505084001 | 71 | 159 | 7.0 | 9.0 | 0.00 | 0.00 | 0.00 | 88 | 1006.0 |
| 20260505083458 | 71 | 211 | 6.0 | 7.0 | 0.00 | 0.00 | 0.00 | 88 | 1006.0 |
| 20260505082954 | 71 | 180 | 4.0 | 6.0 | 0.00 | 0.00 | 0.00 | 88 | 1006.2 |
| 20260505082450 | 71 | 178 | 8.0 | 11.0 | 0.00 | 0.00 | 0.00 | 88 | 1006.1 |
| 20260505081947 | 71 | 190 | 4.0 | 5.0 | 0.00 | 0.00 | 0.00 | 88 | 1006.3 |
| 20260505081444 | 71 | 159 | 4.0 | 6.0 | 0.00 | 0.00 | 0.00 | 87 | 1006.1 |
| 20260505080940 | 71 | 197 | 4.0 | 5.0 | 0.00 | 0.00 | 0.00 | 87 | 1006.2 |
| 20260505080437 | 71 | 179 | 7.0 | 10.0 | 0.00 | 0.00 | 0.00 | 87 | 1006.1 |
| 20260505075932 | 71 | 178 | 5.0 | 8.0 | 0.00 | 0.00 | 0.00 | 87 | 1006.2 |
| 20260505075429 | 71 | 152 | 7.0 | 9.0 | 0.00 | 0.00 | 0.00 | 87 | 1006.5 |
| 20260505074927 | 71 | 160 | 2.0 | 3.0 | 0.00 | 0.00 | 0.00 | 86 | 1006.4 |
| 20260505074424 | 71 | 191 | 5.0 | 7.0 | 0.00 | 0.00 | 0.00 | 86 | 1006.5 |
| 20260505073921 | 71 | 172 | 6.0 | 8.0 | 0.00 | 0.00 | 0.00 | 86 | 1006.7 |
| 20260505073419 | 71 | 170 | 3.0 | 5.0 | 0.00 | 0.00 | 0.00 | 86 | 1006.8 |
| 20260505072916 | 71 | 173 | 5.0 | 8.0 | 0.00 | 0.00 | 0.00 | 86 | 1006.9 |
| 20260505072412 | 72 | 169 | 3.0 | 5.0 | 0.00 | 0.00 | 0.00 | 85 | 1007.0 |
| 20260505071908 | 72 | 222 | 5.0 | 7.0 | 0.00 | 0.00 | 0.00 | 85 | 1006.9 |
| 20260505071404 | 72 | 179 | 7.0 | 9.0 | 0.00 | 0.00 | 0.00 | 85 | 1007.0 |
| 20260505070902 | 72 | 194 | 3.0 | 3.0 | 0.00 | 0.00 | 0.00 | 84 | 1006.7 |
| 20260505070358 | 72 | 163 | 3.0 | 5.0 | 0.00 | 0.00 | 0.00 | 84 | 1006.9 |
| 20260505065854 | 72 | 157 | 8.0 | 13.0 | 0.00 | 0.00 | 0.00 | 84 | 1007.1 |
| 20260505065351 | 72 | 158 | 8.0 | 11.0 | 0.00 | 0.00 | 0.00 | 83 | 1007.1 |
| 20260505064848 | 72 | 199 | 9.0 | 13.0 | 0.00 | 0.00 | 0.00 | 83 | 1007.2 |
| 20260505064345 | 72 | 214 | 11.0 | 17.0 | 0.00 | 0.00 | 0.00 | 83 | 1007.4 |
| 20260505063844 | 72 | 174 | 3.0 | 5.0 | 0.00 | 0.00 | 0.00 | 83 | 1007.2 |
| 20260505063339 | 72 | 181 | 5.0 | 9.0 | 0.00 | 0.00 | 0.00 | 83 | 1007.2 |
| 20260505062836 | 72 | 193 | 7.0 | 9.0 | 0.00 | 0.00 | 0.00 | 82 | 1007.3 |
| 20260505062333 | 72 | 178 | 5.0 | 7.0 | 0.00 | 0.00 | 0.00 | 82 | 1007.3 |
| 20260505061830 | 72 | 226 | 5.0 | 7.0 | 0.00 | 0.00 | 0.00 | 82 | 1007.3 |
| 20260505061328 | 72 | 166 | 4.0 | 6.0 | 0.00 | 0.00 | 0.00 | 82 | 1007.6 |
| 20260505060825 | 72 | 202 | 6.0 | 7.0 | 0.00 | 0.00 | 0.00 | 81 | 1007.3 |
| 20260505060322 | 72 | 153 | 4.0 | 6.0 | 0.00 | 0.00 | 0.00 | 81 | 1007.4 |
| 20260505055818 | 72 | 201 | 2.0 | 3.0 | 0.00 | 0.00 | 0.00 | 81 | 1007.4 |
| 20260505055314 | 72 | 204 | 6.0 | 8.0 | 0.00 | 0.00 | 0.00 | 81 | 1007.7 |
| 20260505054812 | 73 | 152 | 3.0 | 5.0 | 0.00 | 0.00 | 0.00 | 80 | 1007.4 |
| 20260505054309 | 73 | 178 | 3.0 | 3.0 | 0.00 | 0.00 | 0.00 | 80 | 1007.5 |
| 20260505053807 | 73 | 155 | 6.0 | 8.0 | 0.00 | 0.00 | 0.00 | 80 | 1007.6 |
| 20260505053303 | 73 | 189 | 5.0 | 6.0 | 0.00 | 0.00 | 0.00 | 80 | 1007.7 |
| 20260505052800 | 73 | 180 | 3.0 | 3.0 | 0.00 | 0.00 | 0.00 | 79 | 1007.8 |
| 20260505052257 | 73 | 235 | 5.0 | 5.0 | 0.00 | 0.00 | 0.00 | 79 | 1007.8 |
| 20260505051754 | 73 | 212 | 7.0 | 8.0 | 0.00 | 0.00 | 0.00 | 79 | 1007.8 |
| 20260505051252 | 73 | 117 | 5.0 | 9.0 | 0.00 | 0.00 | 0.00 | 78 | 1007.9 |
| 20260505050750 | 73 | 170 | 7.0 | 10.0 | 0.00 | 0.00 | 0.00 | 78 | 1007.8 |
| 20260505050248 | 73 | 216 | 6.0 | 9.0 | 0.00 | 0.00 | 0.00 | 78 | 1008.0 |
| 20260505041718 | 74 | 174 | 6.0 | 7.0 | 0.00 | 0.00 | 0.00 | 75 | 1008.1 |
| 20260505041215 | 74 | 163 | 4.0 | 5.0 | 0.00 | 0.00 | 0.00 | 75 | 1008.1 |
| 20260505040712 | 74 | 170 | 5.0 | 7.0 | 0.00 | 0.00 | 0.00 | 75 | 1007.9 |
| 20260505040204 | 74 | 193 | 3.0 | 3.0 | 0.00 | 0.00 | 0.00 | 74 | 1008.0 |
| 20260505035700 | 74 | 155 | 8.0 | 11.0 | 0.00 | 0.00 | 0.00 | 74 | 1008.0 |
| 20260505035156 | 74 | 83 | 2.0 | 5.0 | 0.00 | 0.00 | 0.00 | 74 | 1007.9 |
| 20260505034653 | 74 | 169 | 7.0 | 8.0 | 0.00 | 0.00 | 0.00 | 74 | 1007.8 |
| 20260505034151 | 75 | 189 | 3.0 | 3.0 | 0.00 | 0.00 | 0.00 | 74 | 1007.6 |
| 20260505033646 | 75 | 193 | 3.0 | 3.0 | 0.00 | 0.00 | 0.00 | 73 | 1007.7 |
| 20260505033145 | 75 | 174 | 7.0 | 10.0 | 0.00 | 0.00 | 0.00 | 73 | 1008.0 |
| 20260505032643 | 75 | 154 | 5.0 | 7.0 | 0.00 | 0.00 | 0.00 | 73 | 1007.9 |
| 20260505032138 | 75 | 160 | 2.0 | 2.0 | 0.00 | 0.00 | 0.00 | 73 | 1007.8 |
| 20260505031636 | 75 | 121 | 5.0 | 6.0 | 0.00 | 0.00 | 0.00 | 73 | 1008.0 |
| 20260505031132 | 75 | 215 | 2.0 | 3.0 | 0.00 | 0.00 | 0.00 | 73 | 1007.9 |
| 20260505030629 | 75 | 149 | 6.0 | 8.0 | 0.00 | 0.00 | 0.00 | 72 | 1007.9 |
| 20260505030125 | 75 | 173 | 2.0 | 2.0 | 0.00 | 0.00 | 0.00 | 72 | 1007.8 |
| 20260505025620 | 75 | 182 | 1.0 | 1.0 | 0.00 | 0.00 | 0.00 | 72 | 1008.1 |
| 20260505025120 | 75 | 219 | 4.0 | 6.0 | 0.00 | 0.00 | 0.00 | 72 | 1008.0 |
| 20260505024617 | 75 | 173 | 2.0 | 5.0 | 0.00 | 0.00 | 0.00 | 72 | 1007.9 |
| 20260505024114 | 75 | 182 | 3.0 | 3.0 | 0.00 | 0.00 | 0.00 | 72 | 1008.0 |
| 20260505023611 | 75 | 194 | 5.0 | 7.0 | 0.00 | 0.00 | 0.00 | 71 | 1007.8 |
| 20260505023109 | 75 | 168 | 3.0 | 3.0 | 0.00 | 0.00 | 0.00 | 72 | 1007.5 |
| 20260505022606 | 75 | 153 | 3.0 | 5.0 | 0.00 | 0.00 | 0.00 | 72 | 1007.5 |
| 20260505022103 | 75 | 198 | 3.0 | 5.0 | 0.00 | 0.00 | 0.00 | 71 | 1007.9 |
| 20260505021559 | 75 | 173 | 2.0 | 2.0 | 0.00 | 0.00 | 0.00 | 71 | 1007.7 |
| 20260505021056 | 76 | 149 | 4.0 | 6.0 | 0.00 | 0.00 | 0.00 | 71 | 1007.7 |
| 20260505020556 | 76 | 175 | 6.0 | 7.0 | 0.00 | 0.00 | 0.00 | 70 | 1007.7 |
| 20260505020053 | 76 | 202 | 7.0 | 10.0 | 0.00 | 0.00 | 0.00 | 71 | 1007.6 |
| 20260505015550 | 76 | 212 | 4.0 | 6.0 | 0.00 | 0.00 | 0.00 | 70 | 1007.8 |
| 20260505015047 | 76 | 143 | 3.0 | 7.0 | 0.00 | 0.00 | 0.00 | 70 | 1007.8 |
| 20260505014544 | 76 | 195 | 3.0 | 7.0 | 0.00 | 0.00 | 0.00 | 70 | 1007.6 |
| 20260505014041 | 76 | 167 | 2.0 | 3.0 | 0.00 | 0.00 | 0.00 | 69 | 1007.6 |
| 20260505013538 | 76 | 188 | 3.0 | 8.0 | 0.00 | 0.00 | 0.00 | 69 | 1007.8 |
| 20260505013036 | 76 | 172 | 6.0 | 9.0 | 0.00 | 0.00 | 0.00 | 69 | 1007.8 |
| 20260505012533 | 76 | 201 | 7.0 | 10.0 | 0.00 | 0.00 | 0.00 | 69 | 1007.9 |
| 20260505012030 | 77 | 171 | 2.0 | 3.0 | 0.00 | 0.00 | 0.00 | 68 | 1007.7 |
| 20260505011526 | 77 | 175 | 7.0 | 9.0 | 0.00 | 0.00 | 0.00 | 68 | 1007.6 |
| 20260505011023 | 77 | 190 | 6.0 | 8.0 | 0.00 | 0.00 | 0.00 | 68 | 1007.9 |
| 20260505010518 | 77 | 177 | 3.0 | 3.0 | 0.00 | 0.00 | 0.00 | 68 | 1007.6 |
| 20260505010015 | 77 | 176 | 7.0 | 10.0 | 0.00 | 0.00 | 0.00 | 67 | 1007.6 |
| 20260505005512 | 77 | 180 | 9.0 | 11.0 | 0.00 | 0.00 | 0.00 | 67 | 1007.5 |
| 20260505005009 | 77 | 159 | 7.0 | 10.0 | 0.00 | 0.00 | 0.00 | 67 | 1007.6 |
| 20260505004506 | 77 | 172 | 6.0 | 9.0 | 0.00 | 0.00 | 0.00 | 67 | 1007.7 |
| 20260505004003 | 77 | 174 | 3.0 | 3.0 | 0.00 | 0.00 | 0.00 | 66 | 1007.9 |
| 20260505003500 | 78 | 195 | 7.0 | 10.0 | 0.00 | 0.00 | 0.00 | 66 | 1008.0 |
| 20260505002956 | 78 | 177 | 5.0 | 8.0 | 0.00 | 0.00 | 0.00 | 66 | 1007.8 |